Location: Newark
(41.9364°N, 2.8061°E)
Time: 04:35:33
(UTC+00:00)

A-11 Canister half - Pass Details

Date: 23 February 2020
Orbit: 1517 x 1683 km, 47.2° (Epoch: 04 April)

Event Time Altitude Azimuth Distance (km) Brightness Sun altitude
Rises 21:37:05 0° 297° (WNW) 4,813 12.4 -44.8°
Reaches altitude 10° 21:40:16 10° 294° (WNW) 3,803 11.6 -45.3°
Enters shadow 21:46:24 42° 273° (W) 2,116 9.8 -46.2°
